Tracking 23762 objects as of 20-Oct-2021
HD Live streaming from Space Station
objects crossing your sky now

SL-8 R/B

Track SL-8 R/B now!
10-day predictions


NORAD ID: 6271
Int'l Code: 1972-087J
Perigee: 1,474.2 km
Apogee: 1,599.9 km
Inclination: 74.0 °
Period: 116.6 minutes
Semi major axis: 7908 km
RCS: 6.2723 m2 (large)
Launch date: November 1, 1972
Source: Commonwealth of Independent States (former USSR) (CIS)
Launch site: PLESETSK MISSILE AND SPACE COMPLEX (PKMTR)

Note: This is a ROCKET BODY
aabbcc
Your satellite tracking list
Your tracking list is empty




NASA's NSSDC Master Catalog

Two Line Element Set (TLE):
1 06271U 72087J   21292.81332868  .00000003  00000-0  13857-3 0  9995
2 06271  74.0439  49.1492 0079469  59.0602  56.5298 12.34528680206632
Source of the keplerian elements: AFSPC